Newport, VT

1:38 PM EDT on July 22, 2017 (GMT -0400)
Newport State

Weather History for KEFK - April, 2013

Change the Weather History Date:

Monday, April 1, 2013

  Actual Average Record
Temperature  
Mean Temperature 34 °F -  
Max Temperature 43 °F 48 °F 77 °F (1986)
Min Temperature 24 °F 25 °F -2 °F (1964)
Degree Days  
Heating Degree Days 31    
Moisture  
Dew Point 28 °F    
Average Humidity 75    
Maximum Humidity 92    
Minimum Humidity 41    
Precipitation  
Precipitation 0.00 in - - ()
Sea Level Pressure  
Sea Level Pressure 29.60 in    
Wind  
Wind Speed 8 mph (SW)    
Max Wind Speed 17 mph    
Max Gust Speed 30 mph    
Visibility 9 miles    
Events Rain , Snow    
Averages and records for this station are not official NWS values.
T = Trace of Precipitation, MM = Missing Value Source: NWS Daily Summary

Daily Weather History Graph

Daily Weather History Graph

Search for Another Location

Airport or City:

Trip Planner

Search our weather history database for the weather conditions in past years. The results will help you decide how hot, cold, wet, or windy it might be!

Date:

Astronomy

Apr. 01, 2013 Rise Set
Actual Time 6:29 AM EDT 7:16 PM EDT
Civil Twilight 5:59 AM EDT 7:46 PM EDT
Nautical Twilight 5:24 AM EDT 8:21 PM EDT
Astronomical Twilight 4:47 AM EDT 8:58 PM EDT
Moon 12:33 AM EDT (4/1) 10:01 AM EDT (4/1)
Length of Visible Light 13h 46m
Length of Day
12h 47m
Waning Gibbous, 67% of the Moon is Illuminated
Apr 1
Waning Gibbous
Apr 3
Last Quarter
Apr 10
New
Apr 18
First Quarter
Apr 25
Full

Hourly Weather History & Observations

Time (EDT) Temp. Windchill Dew Point Humidity Pressure Visibility Wind Dir Wind Speed Gust Speed Precip Events Conditions
12:15 AM 39.0 °F 33.4 °F 33.8 °F 82% 29.72 in 10.0 mi SSE 8.1 mph - N/A Rain Light Rain
12:35 AM 38.3 °F 32.5 °F 34.0 °F 84% 29.72 in 7.0 mi South 8.1 mph - N/A Rain Rain
12:55 AM 37.8 °F 31.8 °F 33.8 °F 86% 29.71 in 7.0 mi SSE 8.1 mph - N/A Rain Light Rain
1:15 AM 37.4 °F 31.4 °F 33.8 °F 87% 29.69 in 7.0 mi South 8.1 mph - N/A Rain Light Rain
1:35 AM 37.4 °F 31.4 °F 34.0 °F 87% 29.69 in 7.0 mi South 8.1 mph - N/A Rain Light Rain
1:55 AM 37.4 °F 30.8 °F 33.8 °F 87% 29.68 in 10.0 mi SSE 9.2 mph - N/A   Drizzle
2:15 AM 37.0 °F 31.6 °F 33.6 °F 87% 29.67 in 7.0 mi South 6.9 mph - N/A Rain Rain
2:35 AM 36.9 °F 32.2 °F 33.8 °F 89% 29.66 in 5.0 mi South 5.8 mph - N/A Rain Light Rain
2:55 AM 36.9 °F 31.4 °F 33.4 °F 87% 29.65 in 7.0 mi South 6.9 mph - N/A Rain Light Rain
3:15 AM 36.7 °F 32.0 °F 33.4 °F 88% 29.65 in 5.0 mi South 5.8 mph - N/A Rain Light Rain
3:35 AM 36.5 °F 32.7 °F 33.1 °F 87% 29.63 in 5.0 mi South 4.6 mph - N/A Rain Heavy Rain
3:55 AM 36.1 °F 31.4 °F 33.1 °F 89% 29.62 in 7.0 mi SSE 5.8 mph - N/A   Drizzle
4:15 AM 35.8 °F 28.8 °F 32.9 °F 89% 29.61 in 7.0 mi SSE 9.2 mph - N/A   Drizzle
4:35 AM 35.8 °F 30.9 °F 32.9 °F 89% 29.60 in 10.0 mi South 5.8 mph - N/A   Drizzle
4:55 AM 35.4 °F 30.5 °F 32.4 °F 89% 29.60 in 10.0 mi SSW 5.8 mph - N/A   Light Drizzle
5:15 AM 34.9 °F 29.0 °F 32.2 °F 90% 29.59 in 10.0 mi SSW 6.9 mph - N/A   Light Drizzle
5:35 AM 34.2 °F 31.2 °F 32.0 °F 92% 29.58 in 10.0 mi South 3.5 mph - N/A   Light Drizzle
5:55 AM 34.0 °F - 32.0 °F 92% 29.58 in 10.0 mi Calm Calm - N/A   Mostly Cloudy
6:15 AM 34.3 °F 29.2 °F 32.0 °F 91% 29.58 in 10.0 mi SSE 5.8 mph - N/A   Overcast
6:35 AM 34.3 °F 30.2 °F 32.0 °F 91% 29.58 in 10.0 mi SSE 4.6 mph - N/A   Overcast
6:55 AM 34.5 °F 29.4 °F 32.0 °F 90% 29.58 in 10.0 mi SSE 5.8 mph - N/A   Overcast
7:15 AM 35.1 °F 31.0 °F 32.4 °F 90% 29.58 in 10.0 mi South 4.6 mph - N/A   Overcast
7:35 AM 35.2 °F 32.4 °F 32.2 °F 89% 29.58 in 10.0 mi South 3.5 mph - N/A   Overcast
7:55 AM 35.6 °F 30.7 °F 32.2 °F 87% 29.58 in 10.0 mi South 5.8 mph - N/A   Overcast
8:15 AM 35.8 °F 33.0 °F 32.9 °F 89% 29.57 in 10.0 mi South 3.5 mph - N/A   Overcast
8:35 AM 37.6 °F 30.0 °F 34.2 °F 87% 29.56 in 10.0 mi SSE 11.5 mph - N/A   Overcast
8:55 AM 37.6 °F 32.3 °F 33.8 °F 86% 29.56 in 10.0 mi South 6.9 mph - N/A   Overcast
9:15 AM 37.4 °F 33.8 °F 33.6 °F 86% 29.55 in 10.0 mi SSW 4.6 mph - N/A   Overcast
9:35 AM 38.3 °F 33.9 °F 34.5 °F 86% 29.54 in 10.0 mi SSW 5.8 mph - N/A   Overcast
9:55 AM 39.2 °F 33.6 °F 34.5 °F 83% 29.53 in 10.0 mi South 8.1 mph - N/A   Overcast
10:15 AM 40.1 °F 35.3 °F 34.9 °F 82% 29.52 in 10.0 mi South 6.9 mph - N/A   Overcast
10:35 AM 40.8 °F 36.2 °F 35.6 °F 82% 29.52 in 10.0 mi WSW 6.9 mph - N/A   Overcast
10:55 AM 41.9 °F 35.9 °F 35.8 °F 79% 29.51 in 10.0 mi SSW 10.4 mph - N/A   Mostly Cloudy
11:15 AM 41.5 °F 35.0 °F 35.2 °F 78% 29.52 in 10.0 mi SSW 11.5 mph - N/A   Overcast
11:35 AM 41.9 °F 37.5 °F 35.2 °F 77% 29.50 in 10.0 mi South 6.9 mph - N/A   Light Drizzle
11:55 AM 43.3 °F 38.1 °F 34.9 °F 72% 29.50 in 10.0 mi SSW 9.2 mph - N/A   Overcast
12:15 PM 42.4 °F 37.5 °F 34.7 °F 74% 29.50 in 10.0 mi SSW 8.1 mph - N/A   Overcast
12:35 PM 42.1 °F 37.7 °F 35.2 °F 77% 29.49 in 10.0 mi SSW 6.9 mph - N/A   Light Drizzle
12:55 PM 42.4 °F 36.5 °F 35.6 °F 77% 29.49 in 10.0 mi SSW 10.4 mph 16.1 mph N/A   Overcast
1:15 PM 41.2 °F 36.0 °F 36.1 °F 82% 29.49 in 5.0 mi SSW 8.1 mph - N/A Rain Light Rain
1:35 PM 41.0 °F 37.1 °F 37.0 °F 86% 29.49 in 7.0 mi South 5.8 mph - N/A Rain Light Rain
1:55 PM 40.6 °F 36.0 °F 36.5 °F 85% 29.48 in 7.0 mi South 6.9 mph - N/A   Light Drizzle
2:15 PM 41.2 °F 36.0 °F 36.3 °F 83% 29.48 in 10.0 mi SW 8.1 mph - N/A Rain Rain
2:35 PM 40.3 °F 33.4 °F 34.0 °F 78% 29.49 in 7.0 mi WSW 11.5 mph 17.3 mph N/A Rain Light Rain
2:55 PM 38.5 °F 30.7 °F 33.1 °F 81% 29.52 in 3.0 mi West 12.7 mph 23.0 mph N/A Rain Rain
3:15 PM 36.3 °F 30.8 °F 32.0 °F 84% 29.53 in 4.0 mi West 6.9 mph - N/A Rain Rain
3:35 PM 34.7 °F 26.9 °F 31.5 °F 88% 29.54 in 2.5 mi West 10.4 mph 17.3 mph N/A Rain Light Rain
3:55 PM 35.2 °F - 30.9 °F 84% 29.53 in 10.0 mi Calm Calm - N/A Rain Light Rain
4:15 PM 36.7 °F - 31.3 °F 81% 29.55 in 10.0 mi Calm Calm - N/A   Overcast
4:35 PM 37.8 °F 28.6 °F 28.4 °F 69% 29.55 in 10.0 mi West 16.1 mph 24.2 mph N/A   Overcast
4:55 PM 37.0 °F 28.9 °F 25.3 °F 63% 29.57 in 10.0 mi West 12.7 mph 29.9 mph N/A   Overcast
5:15 PM 37.2 °F 28.7 °F 21.9 °F 54% 29.58 in 10.0 mi West 13.8 mph 23.0 mph N/A   Overcast
5:35 PM 36.5 °F 26.7 °F 19.2 °F 50% 29.60 in 10.0 mi West 17.3 mph 28.8 mph N/A   Mostly Cloudy
5:55 PM 36.3 °F 26.8 °F 17.1 °F 46% 29.60 in 10.0 mi West 16.1 mph 20.7 mph N/A   Mostly Cloudy
6:15 PM 34.9 °F 25.3 °F 15.8 °F 46% 29.61 in 10.0 mi West 15.0 mph 24.2 mph N/A   Mostly Cloudy
6:35 PM 34.2 °F 24.0 °F 13.8 °F 43% 29.63 in 10.0 mi WSW 16.1 mph 23.0 mph N/A   Overcast
6:55 PM 33.8 °F 23.9 °F 12.0 °F 41% 29.63 in 10.0 mi WSW 15.0 mph 26.5 mph N/A   Mostly Cloudy
7:15 PM 32.5 °F 22.7 °F 11.8 °F 42% 29.64 in 10.0 mi West 13.8 mph 24.2 mph N/A   Mostly Cloudy
7:35 PM 32.0 °F 22.1 °F 14.2 °F 48% 29.65 in 10.0 mi WSW 13.8 mph 20.7 mph N/A   Overcast
7:55 PM 30.9 °F 20.2 °F 18.7 °F 61% 29.67 in 7.0 mi West 15.0 mph 23.0 mph N/A Snow Light Snow
8:15 PM 29.3 °F 22.3 °F 18.7 °F 65% 29.67 in 10.0 mi WSW 6.9 mph 18.4 mph N/A   Overcast
8:35 PM 30.0 °F 21.7 °F 11.3 °F 46% 29.68 in 10.0 mi West 9.2 mph 18.4 mph N/A   Scattered Clouds
8:55 PM 30.2 °F 19.3 °F 10.2 °F 43% 29.68 in 10.0 mi West 15.0 mph 23.0 mph N/A   Mostly Cloudy
9:15 PM 30.2 °F 19.3 °F 9.1 °F 41% 29.68 in 10.0 mi West 15.0 mph 24.2 mph N/A   Overcast
9:35 PM 29.8 °F 18.4 °F 11.1 °F 46% 29.68 in 10.0 mi West 16.1 mph 26.5 mph N/A   Overcast
9:55 PM 28.2 °F 16.3 °F 16.2 °F 61% 29.69 in 5.0 mi West 16.1 mph 24.2 mph N/A Snow Light Snow
10:15 PM 27.7 °F 17.6 °F 16.0 °F 62% 29.70 in 7.0 mi West 11.5 mph 21.9 mph N/A Snow Light Snow
10:35 PM 27.5 °F 16.3 °F 15.6 °F 61% 29.71 in 10.0 mi West 13.8 mph 23.0 mph N/A   Overcast
10:55 PM 26.6 °F 16.2 °F 16.3 °F 65% 29.71 in 10.0 mi West 11.5 mph 18.4 mph N/A   Overcast
11:15 PM 26.6 °F 16.2 °F 14.5 °F 60% 29.71 in 10.0 mi West 11.5 mph 24.2 mph N/A   Overcast
11:35 PM 25.7 °F 13.5 °F 15.6 °F 66% 29.72 in 5.0 mi West 15.0 mph 21.9 mph N/A Snow Light Snow
11:55 PM 24.3 °F 13.3 °F 18.3 °F 78% 29.71 in 2.0 mi West 11.5 mph 16.1 mph N/A Snow Light Snow